Regional Weather Roundup
Issued by NWS

Home | Current Version | Previous Version | Text Only | Print | Product List | Glossary Off
Versions: 1 2 3 4 5 6 7 8 9 10 11 12 13 14 15 16 17 18 19 20 21 22 23 24 25 26 27 28 29 30 31 32 33 34 35 36 37 38 39 40 41 42 43 44 45 46 47 48 49 50

000
ASUS43 KFSD 201802
RWRSD

WEATHER ROUNDUP FOR SOUTH DAKOTA
NATIONAL WEATHER SERVICE SIOUX FALLS SD
100 PM CDT MON APR 20 2015

NOTE: "FAIR" INDICATES FEW OR NO CLOUDS BELOW 12,000 FEET WITH NO
SIGNIFICANT WEATHER AND/OR OBSTRUCTIONS TO VISIBILITY.


SDZ001>005-009-010-012>017-201900-
NORTHWEST AND NORTH CENTRAL SOUTH DAKOTA

CITY           SKY/WX    TMP DP  RH WIND       PRES   REMARKS
BUFFALO          N/A     46  20  35 NW26G36   29.82F
FAITH            N/A     49  15  25 NW29G38   29.84F
MOBRIDGE       SUNNY     51   7  16 NW38G46   29.75F
$$

SDZ012>016-024>037-041>051-057-063-072>074-201900-
SOUTHWEST AND SOUTH CENTRAL SOUTH DAKOTA

CITY           SKY/WX    TMP DP  RH WIND       PRES   REMARKS
RAPID CTY ARPT CLOUDY    50  21  32 NW24G31   29.91S
PIERRE         SUNNY     52   9  17 NW32G41   29.81F
CUSTER         MOSUNNY   40  14  34 NW12G23   29.88F
PHILIP         PTSUNNY   52  16  24 NW22G31   29.87F
PINE RIDGE     CLOUDY    49  20  31 NW17G24   29.92F
WINNER         FAIR      54  16  22 NW25G40   29.83F
$$

SDZ004>011-016>023-039-040-201900-
NORTHEAST SOUTH DAKOTA

CITY           SKY/WX    TMP DP  RH WIND       PRES   REMARKS
ABERDEEN       PTSUNNY   47  25  42 NW25G33   29.73F
WATERTOWN      CLOUDY    39  26  59 NW30G36   29.66S
BROOKINGS      CLOUDY    43  27  52 NW29G36   29.67F
SISSETON         N/A     39  32  76 NW26G33   29.64F
$$

SDZ017-020-022-023-036>040-048>070-201900-
SOUTHEAST SOUTH DAKOTA

CITY           SKY/WX    TMP DP  RH WIND       PRES   REMARKS
SIOUX FALLS    MOSUNNY   50  15  24 NW36G41   29.68F
HURON          SUNNY     49  16  26 NW31G41   29.73F
MITCHELL       SUNNY     53   4  13 NW32G46   29.75F
YANKTON        SUNNY    N/A N/A N/A NW31G40   29.74F
$$

ABBREVIATIONS USED IN REMARKS
   TC - TEMPERATURE IN CELSIUS
  WCI - WIND CHILL INDEX
   HX - HEAT INDEX
  VSB - VISIBILITY



USA.gov is the U.S. government's official web portal to all federal, state and local government web resources and services.